Beidou DW 8

operational
NORAD ID: 37384 Int'l Des: 2011-013 Owner: CNSA Country: CN Constellation: BeiDou
HEOCIRCULARGSO

About Beidou DW 8

Description loading...

Live Position

Loading 3D Globe...

Upcoming Passes

Altitude History

Altitude vs Time

uPlot chart will show altitude changes over time

Two-Line Element Set

1 37384U 11013A 25304.70446999 -.00000186 00000-0 00000+0 0 9998
2 37384 62.0877 42.3206 0036345 183.4729 175.7392 1.00280781 53367
Epoch: Oct 31, 2025 • Age: 21 hours

Current Status

Altitude 35888.2 km
Velocity 3.07 km/s
Sub-Earth Point -43.53°S, 129.05°E
Launch Date Apr 9, 2011
Age 14.5 years
Type navigation

Technical Details

Classification Payload
Mass 2300.00 kg
Dry Mass 1300.00 kg
Total Mass 2300.00 kg
Length 3.00 m
Diameter 1.70 m
Span 18.00 m
Shape Box + 2 Pan
Manufacturer CAST
Bus Type DFH-3
Phase Status In Orbit
Owner/State CNSA/CN

Large Constellations

Loading constellations...